<?xml version="1.0" encoding="UTF-8" standalone="no" ?>
<gpx xmlns="http://www.topografix.com/GPX/1/1" xmlns:xsi="http://www.w3.org/2001/XMLSchema-instance" xsi:schemaLocation="http://www.topografix.com/GPX/1/1 http://www.topografix.com/GPX/1/1/gpx.xsd" version="1.1" creator="VisuGPX - https://www.visugpx.com">
  <metadata>
    <name>Tréminis Chichilianne MAJ</name>
  </metadata>
  <trk>
    <name><![CDATA[itin suppCordeac croixPigne a verif]]></name>
    <trkseg>
      <trkpt lat="44.80556" lon="5.85354">
        <ele>1070</ele>
        <time>2004-07-26T16:50:38Z</time>
      </trkpt>
      <trkpt lat="44.80482" lon="5.85292">
        <ele>1065</ele>
        <time>2004-07-26T16:50:38Z</time>
      </trkpt>
      <trkpt lat="44.80429" lon="5.85238">
        <ele>1066</ele>
        <time>2004-07-26T16:50:38Z</time>
      </trkpt>
      <trkpt lat="44.80389" lon="5.85217">
        <ele>1055</ele>
        <time>2004-07-26T16:50:38Z</time>
      </trkpt>
      <trkpt lat="44.80331" lon="5.85074">
        <ele>1074</ele>
        <time>2004-07-26T16:50:38Z</time>
      </trkpt>
      <trkpt lat="44.80253" lon="5.85113">
        <ele>1076</ele>
        <time>2004-07-26T16:50:38Z</time>
      </trkpt>
      <trkpt lat="44.80162" lon="5.85158">
        <ele>1083</ele>
        <time>2004-07-26T16:50:38Z</time>
      </trkpt>
      <trkpt lat="44.80112" lon="5.85174">
        <ele>1093</ele>
        <time>2004-07-26T16:50:38Z</time>
      </trkpt>
      <trkpt lat="44.80109" lon="5.85111">
        <ele>1102</ele>
        <time>2004-07-26T16:50:38Z</time>
      </trkpt>
      <trkpt lat="44.79992" lon="5.8511">
        <ele>1134</ele>
        <time>2004-07-26T16:50:38Z</time>
      </trkpt>
      <trkpt lat="44.80029" lon="5.85213">
        <ele>1137</ele>
        <time>2004-07-26T16:50:38Z</time>
      </trkpt>
      <trkpt lat="44.80117" lon="5.85276">
        <ele>1122</ele>
        <time>2004-07-26T16:50:38Z</time>
      </trkpt>
      <trkpt lat="44.8021" lon="5.85345">
        <ele>1113</ele>
        <time>2004-07-26T16:50:38Z</time>
      </trkpt>
      <trkpt lat="44.80297" lon="5.85426">
        <ele>1091</ele>
        <time>2004-07-26T16:50:38Z</time>
      </trkpt>
      <trkpt lat="44.8037" lon="5.85551">
        <ele>1060</ele>
        <time>2004-07-26T16:50:38Z</time>
      </trkpt>
      <trkpt lat="44.8039" lon="5.85761">
        <ele>1060</ele>
        <time>2004-07-26T16:50:38Z</time>
      </trkpt>
      <trkpt lat="44.80418" lon="5.8587">
        <ele>1050</ele>
        <time>2004-07-26T16:50:38Z</time>
      </trkpt>
      <trkpt lat="44.80449" lon="5.86024">
        <ele>1023</ele>
        <time>2004-07-26T16:50:38Z</time>
      </trkpt>
      <trkpt lat="44.80526" lon="5.86155">
        <ele>1006</ele>
        <time>2004-07-26T16:50:38Z</time>
      </trkpt>
      <trkpt lat="44.80564" lon="5.86366">
        <ele>994</ele>
        <time>2004-07-26T16:50:38Z</time>
      </trkpt>
      <trkpt lat="44.80628" lon="5.86497">
        <ele>977</ele>
        <time>2004-07-26T16:50:38Z</time>
      </trkpt>
      <trkpt lat="44.80713" lon="5.86502">
        <ele>965</ele>
        <time>2004-07-26T16:50:38Z</time>
      </trkpt>
      <trkpt lat="44.80728" lon="5.86598">
        <ele>970</ele>
        <time>2004-07-26T16:50:38Z</time>
      </trkpt>
      <trkpt lat="44.80763" lon="5.86638">
        <ele>966</ele>
        <time>2004-07-26T16:50:38Z</time>
      </trkpt>
      <trkpt lat="44.80763" lon="5.86638">
        <ele>966</ele>
        <time>2004-07-26T16:50:38Z</time>
      </trkpt>
    </trkseg>
  </trk>
</gpx>